星链-31374 (STARLINK-31374 )

导读 | 星芒AI

STARLINK-31374 是 SpaceX Starlink 项目中的一颗低轨通信卫星,属于该星座的众多组网卫星之一。该卫星于2023年发射,运行在约550公里高度的近地轨道,旨在为全球提供高速互联网服务。Starlink 卫星采用先进推进系统和激光通信技术,以提升网络效率和减少延迟。STARLINK-31374 的部署有助于扩大 Starlink 在偏远和网络基础设施薄弱地区的覆盖范围,支持民用和军事通信需求。

基本信息
目录编号:
59404
目录名称:
STARLINK-31374
国际标识:
2024-064G
轨道中心:
EARTH
卫星名称:
星链-31374
卫星全名:
星链-31374 (STARLINK-31374 )
卫星状态:
在轨 (已飞行623 天)
发射日期:
2024-04-05 UTC
国别 :
美国 (US)
星等 :
--
轨道信息
数据来源 国际轨道数据 AOE轨道数据
星历时间 2025-12-18T21:51:06+0800
1天前
查看轨道信息
2025-12-14T11:00:00+0800
5天前
查看轨道信息
半长轴 6861.199km 6861.129km
偏心率 0.0001005 0.0003183
轨道倾角 43.001° 43.005°
近地点辐角 241.857° 294.313°
升交点赤经 103.187° 128.332°
平近点角 118.218° 33.358°
近地点 482.374km 480.81km
远地点 483.754km 485.178km
周期 94.267分钟 94.266分钟
每日圈数 15.27576 15.275992
详细信息
固有亮度:
5
最大亮度:
0.3
卫星平台:
Starlink v2.0 mini
覆盖范围:
全球
运营商:
太空探索技术公司
运营商所在国:
美国
制造商(研发单位):
太空探索技术公司
制造商所在国:
美国
使用方式:
暂无
卫星简介
星链(Starlink)计划是由太空探索技术公司(SpaceX)提出的一个巨型低轨卫星互联网星座项目,计划在2019年至2024年间在太空搭建由约1.2万颗卫星组成的“星链”网络,其中1584颗将部署在地球上空550千米处的近地轨道,并从2020年开始工作。该卫星仍在工作。
2D轨道图
3D轨道图
轨道高度分析图
轨道倾角分析图
轨道综合分析图
查看轨道综合分析图